#timestamp,LO_Frequency,Hit 
1498712415.7,286047010.9,N
1498712435.5,286047013.2,N
1498712455.4,286047013.6,N
1498712475.2,286047013.8,N
1498712495.0,286047013.0,N
1498712495.9,286047013.0,N
1498712515.8,286047013.1,N
1498712535.6,286047012.8,N
1498712555.4,286047010.9,N
1498712575.3,286047012.7,N
1498712595.1,286047013.0,N
1498712596.0,286047013.0,N
1498712615.8,286047012.7,N
1498712635.7,286047015.2,N
1498712655.5,286047014.3,N
1498712675.3,286047015.6,N
1498712695.1,286047016.6,N
1498712715.9,286047017.2,N
1498712735.7,286047012.7,N
1498712755.5,286047013.4,N
1498712775.4,286047014.6,N
1498712795.2,286047016.8,N
1498712815.0,286047014.5,N
1498712815.9,286047014.5,N
1498712835.8,286047016.5,N
1498712855.6,286047015.4,N
1498712875.4,286047013.2,N
1498712895.3,286047014.1,N
1498712915.1,286047014.1,N
1498712916.0,286047014.1,N
1498712935.8,286047017.0,N
1498712955.7,286047016.5,N
1498712975.5,286047014.1,N
1498712995.3,286047015.5,N
1498713015.1,286047014.1,N
1498713035.9,286047016.1,N
1498713055.7,286047016.2,N
1498713075.5,286047016.7,N
1498713095.4,286047017.3,N
1498713115.2,286047020.0,N
1498713135.0,286047019.1,N
1498713135.9,286047019.1,N
1498713155.8,286047020.1,N
1498713175.6,286047020.4,N
1498713195.4,286047017.8,N
1498713215.3,286047020.1,N
1498713235.1,286047018.7,N
1498713236.0,286047018.7,N
1498713255.8,286047014.5,N
1498713275.7,286047015.2,N
1498713295.5,286047016.5,N
1498713315.3,286047018.3,N
1498713335.2,286047018.8,N
1498713355.9,286047016.2,N
1498713375.7,286047016.6,N
1498713395.5,286047020.2,N
1498713415.4,286047018.8,N
1498713435.2,286047017.7,N
1498713455.0,286047017.0,N
1498713455.9,286047017.0,N
1498713475.8,286047017.6,N
1498713495.6,286047018.9,N
1498713515.4,286047020.9,N
1498713535.3,286047021.9,N
1498713555.1,286047020.6,N
1498713575.8,286047020.6,N
1498713595.7,286047020.5,N
1498713615.5,286047021.8,N
1498713635.3,286047019.7,N
1498713655.2,286047019.5,N
1498713675.9,286047020.4,N
1498713695.7,286047017.4,N
1498713715.6,286047020.0,N
1498713735.4,286047019.0,N
1498713755.2,286047021.2,N
1498713775.0,286047021.3,N
1498713776.0,286047021.3,N
1498713795.8,286047019.0,N
1498713815.6,286047019.1,N
1498713835.4,286047021.6,N
1498713855.3,286047019.5,N
1498713875.1,286047019.4,N
1498713895.8,286047021.9,N
1498713915.7,286047021.5,N
1498713935.5,286047021.6,N
1498713955.3,286047021.0,N
1498713975.2,286047022.4,N
1498713995.9,286047020.7,N
1498714015.7,286047021.5,N
1498714035.6,286047019.7,N
1498714055.4,286047021.2,N
1498714075.2,286047022.5,N
1498714095.1,286047024.3,Y
1498714096.0,286047024.3,Y
1498714115.8,286046982.3,N
1498714135.6,286046980.9,N
1498714155.5,286046981.7,N
1498714175.3,286046979.2,N
1498714195.1,286046980.3,N
1498714215.9,286046981.5,N
1498714235.7,286046982.8,N
1498714255.5,286046986.3,N
1498714275.3,286046988.1,N
1498714295.2,286046987.3,N
1498714315.0,286046986.8,N
1498714315.9,286046986.8,N
1498714335.7,286046982.8,N
1498714355.6,286046985.0,N
1498714375.4,286046985.0,N
1498714395.2,286046983.9,N
1498714415.1,286046983.9,N
1498714416.0,286046983.9,N
1498714435.8,286046982.5,N
1498714455.6,286046985.2,N
1498714475.5,286046986.4,N
1498714495.3,286046988.3,N
1498714515.1,286046986.4,N
1498714535.9,286046985.9,N
1498714555.7,286046987.6,N
1498714575.5,286046989.5,N
1498714595.3,286046989.3,N
1498714615.2,286046988.6,N
1498714635.0,286046992.7,N
1498714635.9,286046992.7,N
1498714655.7,286046990.6,N
1498714675.6,286046992.9,N
1498714695.4,286046991.7,N
1498714715.2,286046994.8,N
1498714735.1,286046990.8,N
1498714736.0,286046990.8,N
1498714755.8,286046989.4,N
1498714775.6,286046987.8,N
1498714795.5,286046985.6,N
1498714815.3,286046986.1,N
1498714835.1,286046986.7,N
1498714855.9,286046985.8,N
1498714875.7,286046986.5,N
1498714895.5,286046989.6,N
1498714915.4,286046989.3,N
1498714935.2,286046988.6,N
1498714955.0,286046992.7,N
1498714955.9,286046992.7,N
1498714975.8,286046990.4,N
1498714995.6,286046989.2,N
1498715015.4,286046989.4,N
1498715035.2,286046989.7,N
1498715055.1,286046985.3,N
1498715056.0,286046985.3,N
1498715075.8,286046987.1,N
1498715095.6,286046988.8,N
1498715115.5,286046988.5,N
1498715135.3,286046991.4,N
1498715155.1,286046990.6,N
1498715175.9,286046994.2,N
1498715195.7,286046993.9,N
1498715215.5,286046994.1,N
1498715235.4,286046995.8,N
1498715255.2,286046998.0,N
1498715275.0,286046997.9,N
1498715275.9,286046997.9,N
1498715295.8,286046997.6,N
1498715315.6,286046995.0,N
1498715335.4,286046998.4,N
1498715355.2,286047006.0,N
1498715375.1,286047003.4,N
1498715376.0,286047003.4,N
1498715395.8,286046999.3,N
1498715415.6,286046995.8,N
1498715435.5,286046995.8,N
1498715455.3,286046990.3,N
1498715475.1,286046995.2,N
1498715495.9,286046997.0,N
1498715515.7,286047002.5,N
1498715535.5,286046996.6,N
1498715555.4,286047000.2,N
1498715575.2,286047005.3,N
1498715595.0,286047004.2,N
1498715595.9,286047004.2,N
1498715615.8,286047012.0,N
1498715635.6,286047019.2,N
1498715655.4,286047026.3,N
1498715675.3,286047029.6,N
1498715695.1,286047028.3,N
1498715696.0,286047028.3,N
1498715715.8,286047024.0,N
1498715735.7,286047029.2,N
1498715755.5,286047037.5,Y
1498715775.3,286047022.8,N
1498715795.2,286047022.8,N
1498715815.9,286047029.5,N
1498715835.7,286047033.8,N
1498715855.6,286047035.2,N
1498715875.4,286047036.4,Y
1498715895.2,286047013.5,N
1498715915.1,286047001.4,N
1498715916.0,286047001.4,N
1498715935.8,286046996.2,N
1498715955.6,286046993.5,N
1498715975.4,286046993.5,N
1498715995.3,286046997.8,N
